Regional Weather Roundup
Issued by NWS Little Rock, AR

Home | Current Version | Previous Version | Text Only | Print | Product List | Glossary Off
Versions: 1 2 3 4 5 6 7 8 9 10 11 12 13 14 15 16 17 18 19 20 21 22 23 24 25 26 27 28 29 30 31 32 33 34 35 36 37 38 39 40 41 42 43 44 45 46 47 48 49 50

000
ASUS44 KLZK 241305
RWRLZK

WEATHER ROUNDUP FOR ARKANSAS
NATIONAL WEATHER SERVICE LITTLE ROCK AR
800 AM CDT SUN MAY 24 2015

NOTE: "FAIR" INDICATES FEW OR NO CLOUDS BELOW 12,000 FEET WITH NO
SIGNIFICANT WEATHER AND/OR OBSTRUCTIONS TO VISIBILITY.

ARZ001-003-010-029-241400-
NORTHWEST ARKANSAS

CITY           SKY/WX    TMP DP  RH WIND       PRES   REMARKS
FAYETTEVILLE   LGT RAIN  69  66  90 SE9G26    29.93F
FORT SMITH     RAIN      71  67  87 S12G20    29.92R FOG
HARRISON       CLOUDY    69  67  93 S8        29.99F
BENTONVILLE    CLOUDY    66  63  88 SE7       29.94F
ROGERS         CLOUDY    65  64  97 SE6       29.95F
SILOAM SPGS    CLOUDY    64  57  77 E5        29.93F
HIGHFILL       LGT RAIN  65  32  29 E6        29.92F
SPRINGDALE     CLOUDY    66  64  94 CALM      29.96F
$$

ARZ004-005-016-241400-
NORTH CENTRAL ARKANSAS

CITY           SKY/WX    TMP DP  RH WIND       PRES   REMARKS
BATESVILLE     CLOUDY    70  64  83 E7        30.05S
FLIPPIN        CLOUDY    70  66  88 E6        29.99F
MTN HOME       LGT RAIN  66  66 100 SE7       30.01F FOG
$$

ARZ040-041-241400-
WEST CENTRAL ARKANSAS

CITY           SKY/WX    TMP DP  RH WIND       PRES   REMARKS
MENA           CLOUDY    73  70  88 SE9G18    29.95F
MOUNT IDA      CLOUDY    73  68  84 VRB5      29.97S
$$

ARZ009-017-025-026-028-241400-
NORTHEAST ARKANSAS

CITY           SKY/WX    TMP DP  RH WIND       PRES   REMARKS
CORNING          N/A     72  64  78 S12       30.09S
JONESBORO      MOSUNNY   72  64  76 S12       30.09S
NEWPORT        PTSUNNY   73  65  76 S14       30.08S
WALNUT RIDGE   PTSUNNY   73  63  68 S14       30.07F
BLYTHEVILLE    SUNNY     73  61  65 S16       30.12S
$$

ARZ022-023-033-042-044-241400-
CENTRAL ARKANSAS

CITY           SKY/WX    TMP DP  RH WIND       PRES   REMARKS
LITTLE ROCK    CLOUDY    75  68  78 S9G20     30.03F
N LITTLE ROCK    N/A     73  70  92 S9G21     30.03F
SEARCY         CLOUDY    73  68  84 S12       30.06F
HOT SPRINGS    CLOUDY    73  68  84 S7        30.01S
RUSSELLVILLE   CLOUDY    73  69  87 SE7       29.99S
CLINTON        PTSUNNY   72  68  88 SE6       30.04S FOG
$$

ARZ036-241400-
EAST ARKANSAS

CITY           SKY/WX    TMP DP  RH WIND       PRES   REMARKS
WEST MEMPHIS   PTSUNNY   72  64  76 SE13      30.10S
$$

ARZ050-053-066-070-073-241400-
SOUTHWEST ARKANSAS

CITY           SKY/WX    TMP DP  RH WIND       PRES   REMARKS
ARKADELPHIA    PTSUNNY   74  74 100 VRB6      30.01F
CAMDEN         CLOUDY    75  68  78 NE7       30.03S
TEXARKANA      CLOUDY    74  71  91 SE13G24   29.96F
EL DORADO      CLOUDY    74  70  87 SE14      30.03S
DE QUEEN       LGT RAIN  73  71  93 S7        29.92F
$$

ARZ056-057-069-241400-
SOUTHEAST ARKANSAS

CITY           SKY/WX    TMP DP  RH WIND       PRES   REMARKS
PINE BLUFF     PTSUNNY   74  69  85 S13       30.05F
STUTTGART      MOSUNNY   73  66  78 MISG      30.07S
MONTICELLO     MOSUNNY   73  70  90 SE13G20   30.06F

$$





USA.gov is the U.S. government's official web portal to all federal, state and local government web resources and services.